Flag for Canada Weather past 2 weeks in Selkirk, Manitoba, Canada

Now
57 °F

Cool.


Feels Like: 57 °F
Forecast: 48 / 71 °F
Wind: 1 mph from Southwest

Location: Winnipeg The Forks

Current Time: Sep 3, 2014 at 2:06:33 AM

Latest Report: Sep 3, 2014 at 1:00 AM


Visibility: N/A

Pressure: 29.72 "Hg

Humidity: 93%

Dew point: 55 °F

Location of SelkirkLocation

Historic Weather in Selkirk — Graph

°F

Selkirk temperature yesterday

Maximum temperature yesterday: 72 °F (at 2:00 PM)
Minimum temperature yesterday: 53 °F (at 6:00 AM)
Average temperature yesterday: 61 °F

Past Weeks' High & Low Weather Summary

 TemperatureHumidityPressure
High83 °F (Aug 20, 4:00 PM)99% (Aug 22, 10:00 AM)30.18 "Hg (Aug 22, 10:00 AM)
Low48 °F (Aug 27, 6:00 AM)37% (Sep 1, 3:00 PM)29.51 "Hg (Aug 31, 3:00 PM)
Average64 °F77%29.84 "Hg
* Reported Midnight between Aug 18 and Aug 19 — Midnight between Sep 2 and Sep 3, Selkirk, Weather by CustomWeather, © 2014

Note: Actual official high and low records may vary slightly from our data, if they occured in-between our weather recording intervals... More about our weather records

Advertising

Selkirk weather history for previous 24 hours

 ConditionsComfort  
Time TempWeatherWind HumidityBarometerVisibility
12:00 AM
Sep 3
57 °FCool.No wind93%29.72 "HgN/A
11:00 PM
Sep 2
60 °FCool.1 mph85%29.72 "HgN/A
10:00 PM60 °FCool.1 mph89%29.71 "HgN/A
9:00 PM61 °FCool.1 mph81%29.70 "HgN/A
8:00 PM64 °FMild.1 mph69%29.67 "HgN/A
7:00 PM67 °FMild.1 mph60%29.67 "HgN/A
6:00 PM66 °FMild.2 mph62%29.67 "HgN/A
5:00 PM66 °FMild.3 mph67%29.68 "HgN/A
4:00 PM61 °FCool.2 mph85%29.68 "HgN/A
3:00 PM69 °FMild.2 mph48%29.66 "HgN/A
2:00 PM72 °FMild.2 mph48%29.66 "HgN/A
1:00 PM69 °FMild.2 mph47%29.68 "HgN/A
12:00 PM69 °FMild.5 mph51%29.70 "HgN/A
11:00 AM68 °FMild.3 mph52%29.70 "HgN/A
10:00 AM62 °FCool.5 mph65%29.72 "HgN/A
9:00 AM58 °FCool.3 mph69%29.72 "HgN/A
8:00 AM54 °FCool.3 mph73%29.71 "HgN/A
7:00 AM54 °FCool.3 mph77%29.71 "HgN/A
6:00 AM53 °FCool.5 mph79%29.71 "HgN/A
5:00 AM55 °FCool.3 mph75%29.70 "HgN/A
4:00 AM54 °FCool.5 mph72%29.70 "HgN/A
3:00 AM55 °FCool.3 mph75%29.69 "HgN/A
2:00 AM56 °FCool.2 mph73%29.69 "HgN/A
Weather by CustomWeather, © 2014

See weather overviewHow to use our weather pages